Tracking 31027 objects as of 19-Jul-2025
HD Live streaming from Space Station
objects crossing your sky now

BLOCK DM-SL R/B

Track BLOCK DM-SL R/B now!
10-day predictions


NORAD ID: 32730
Int'l Code: 2008-013B
Perigee: 213.1 km
Apogee: 20,014.8 km
Inclination: 0.5 °
Period: 351.1 minutes
Semi major axis: 16484 km
RCS: 20.4628 m2 (large)
Launch date: March 19, 2008
Source: Sea Launch (SEAL)
Launch site: SEA LAUNCH (SEAL)

Note: This is a ROCKET BODY
Your satellite tracking list
LANDSAT 5
Track 1 satellite(s)




NASA's NSSDC Master Catalog

Two Line Element Set (TLE):
1 32730U 08013B   25199.46856556  .00021064  00000-0  80715-3 0  9995
2 32730   0.4738 293.4693 6005972  37.2345   5.9726  4.10175904190110
Source of the keplerian elements: AFSPC